DELTA 1 DEB, 19360

Orbit data source: Space-Track

DELTA 1 DEB, 19360 is space debris in SSO originally from a launch on Tue, 06 Nov 1973 UTC launched from the Air Force Western Test Range (AFWTR). Debris objects in space refer to the collection of defunct objects orbiting the Earth. Examples of debris include non-operational satellites, rocket bodies, and fragments generated from explosions, collisions, or faulty payload assembly.

Loading next visibility...
Identifier
19360, 1973-086HE
Orbit
SSO
Country
Flag of USUS
Related business
Manufacturer
Unknown
Mission
Spacecraft
Bus & Motor
Unknown
Mass
Unknown
Launch date (UTC)
1973-11-06 (52 years ago)
Launch vehicle
Unknown
Launch site
Air Force Western Test Range (AFWTR)
Object type
Payload
Rocket body
Debris
Shape & HBR
Unknown shape, 0.1 m
Radar Cross Section
Small (<0.1 m²)

Expand to show TLE details & history
Last TLE update: 20 hours ago

TLE from 20 hours ago
0 DELTA 1 DEB
1 19360U 73086HE  25293.17691985  .00001108  00000-0  68996-2 0  9990
2 19360 101.8884   4.8623 0051872 224.5935 166.2920 12.56860217849675
Epoch: 2025-10-20T04:14Z
TLE epoch observation values (Epoch: 2025-10-20T04:14:45.875Z)
Latitude
30.33943°
Longitude
-94.75458°
Altitude
1,478.856 km
Speed
7.109 km/s
True Right ascension
23h 51m 16s
True Declination
30° 12' 13"
Sunlit
Object was in full shadow at epoch
Visualization orbit readout
Latitude
Unknown
Longitude
Unknown
Altitude
Unknown
Speed
Unknown
Apparent Right ascension
Unknown
Apparent Declination
Unknown
Sunlit
N/A
Visualization observer readout
Local Sidereal Time
19:30:15
Azimuth
Unknown
Elevation
Unknown
Doppler factor
Unknown
Orbital elements
Apogee altitude
1,473.997 km
Perigee altitude
1,392.957 km
Semi-major axis
7,811.614 km
Eccentricity
0.00519
Inclination
101.8884°
RAAN
4.8623°
Arg. of periapsis
224.5935°
True anomaly
166.43198°
Mean anomaly
166.292°
Eccentric anomaly
166.36208°
Mean motion
3.14363 °/min
Orbital period
114.52 mins
BSTAR
0.0068996
Loading maneuver chart data...
Computing Atmospheric mass density...
Loading historical data...
Loading historical data...
Loading historical data...
Loading historical data...
Loading historical data...
Loading historical data...
Loading historical data...

Documentation

Showing up to 5 results
|